Kirksville, MO

1:46 PM CDT on May 29, 2017 (GMT -0500)
Kirksville Regional

Weather History for KIRK - October, 2015

Change the Weather History Date:

Monday, October 26, 2015

  Actual Average Record
Temperature  
Mean Temperature 50 °F 50 °F  
Max Temperature 64 °F 60 °F 86 °F (1927)
Min Temperature 36 °F 39 °F 17 °F (1942)
Degree Days  
Heating Degree Days 15 15  
Month to date heating degree days 207 297  
Since 1 July heating degree days 260 404  
Cooling Degree Days 0 0  
Month to date cooling degree days 18 10  
Year to date cooling degree days 1102 937  
Moisture  
Dew Point 34 °F    
Average Humidity 57    
Maximum Humidity 82    
Minimum Humidity 32    
Precipitation  
Precipitation 0.00 in 0.10 in 1.23 in (1939)
Month to date precipitation 0.46 2.87  
Year to date precipitation 33.29 34.39  
Sea Level Pressure  
Sea Level Pressure 30.26 in    
Wind  
Wind Speed 8 mph (East)    
Max Wind Speed 15 mph    
Max Gust Speed 19 mph    
Visibility 10 miles    
Events      
T = Trace of Precipitation, MM = Missing Value Source: NWS Daily Summary

Daily Weather History Graph

Daily Weather History Graph

Search for Another Location

Airport or City:

Trip Planner

Search our weather history database for the weather conditions in past years. The results will help you decide how hot, cold, wet, or windy it might be!

Date:

Astronomy

Oct. 26, 2015 Rise Set
Actual Time 7:32 AM CDT 6:15 PM CDT
Civil Twilight 7:04 AM CDT 6:43 PM CDT
Nautical Twilight 6:32 AM CDT 7:14 PM CDT
Astronomical Twilight 6:01 AM CDT 7:46 PM CDT
Moon 6:02 PM CDT (10/26) 6:19 AM CDT (10/26)
Length of Visible Light 11h 38m
Length of Day
10h 42m
Waxing Gibbous, 99% of the Moon is Illuminated
Oct 26
Waxing Gibbous
Oct 27
Full
Nov 3
Last Quarter
Nov 11
New
Nov 19
First Quarter

Hourly Weather History & Observations

Time (CDT) Temp. Windchill Dew Point Humidity Pressure Visibility Wind Dir Wind Speed Gust Speed Precip Events Conditions
12:55 AM 46.0 °F 43.9 °F 36.0 °F 68% 30.32 in 10.0 mi East 4.6 mph - N/A   Clear
1:55 AM 44.1 °F 40.8 °F 35.1 °F 71% 30.31 in 10.0 mi East 5.8 mph - N/A   Clear
2:55 AM 44.1 °F 40.1 °F 34.0 °F 68% 30.31 in 10.0 mi East 6.9 mph - N/A   Clear
3:55 AM 43.0 °F 39.5 °F 34.0 °F 71% 30.31 in 10.0 mi ESE 5.8 mph - N/A   Clear
4:55 AM 43.0 °F 40.3 °F 33.1 °F 68% 30.31 in 10.0 mi East 4.6 mph - N/A   Clear
5:55 AM 39.9 °F 36.7 °F 33.1 °F 77% 30.32 in 10.0 mi East 4.6 mph - N/A   Clear
6:55 AM 39.0 °F 34.8 °F 33.1 °F 79% 30.32 in 10.0 mi East 5.8 mph - N/A   Clear
7:55 AM 37.0 °F 32.4 °F 32.0 °F 82% 30.33 in 10.0 mi ENE 5.8 mph - N/A   Clear
8:55 AM 43.0 °F 40.3 °F 35.1 °F 74% 30.35 in 10.0 mi East 4.6 mph - N/A   Clear
9:55 AM 50.0 °F - 37.0 °F 61% 30.35 in 10.0 mi ESE 10.4 mph - N/A   Clear
10:55 AM 55.9 °F - 36.0 °F 47% 30.33 in 10.0 mi ESE 12.7 mph - N/A   Clear
11:55 AM 59.0 °F - 36.0 °F 42% 30.32 in 10.0 mi ESE 12.7 mph - N/A   Clear
12:55 PM 62.1 °F - 34.0 °F 35% 30.29 in 10.0 mi East 10.4 mph - N/A   Clear
1:55 PM 62.1 °F - 32.0 °F 32% 30.26 in 10.0 mi East 11.5 mph - N/A   Clear
2:55 PM 63.0 °F - 32.0 °F 31% 30.23 in 10.0 mi East 10.4 mph - N/A   Clear
3:55 PM 63.0 °F - 32.0 °F 31% 30.21 in 10.0 mi ESE 12.7 mph - N/A   Clear
4:55 PM 62.1 °F - 32.0 °F 32% 30.20 in 10.0 mi East 12.7 mph - N/A   Clear
5:55 PM 59.0 °F - 32.0 °F 36% 30.20 in 10.0 mi ENE 8.1 mph - N/A   Clear
6:55 PM 55.0 °F - 32.0 °F 42% 30.19 in 10.0 mi ENE 5.8 mph - N/A   Clear
7:55 PM 54.0 °F - 34.0 °F 47% 30.19 in 10.0 mi ENE 6.9 mph - N/A   Clear
8:55 PM 54.0 °F - 33.1 °F 45% 30.19 in 10.0 mi NE 5.8 mph - N/A   Clear
9:55 PM 53.1 °F - 34.0 °F 48% 30.18 in 10.0 mi East 9.2 mph - N/A   Clear
10:55 PM 53.1 °F - 33.1 °F 47% 30.17 in 10.0 mi East 11.5 mph - N/A   Clear
11:55 PM 53.1 °F - 33.1 °F 47% 30.16 in 10.0 mi East 8.1 mph - N/A   Clear